Iron Mountain, MI

10:55 PM CDT on March 26, 2017 (GMT -0500)
Ford

Weather History for KIMT - September, 2011

Change the Weather History Date:

Tuesday, September 13, 2011

  Actual Average Record
Temperature  
Mean Temperature 58 °F -  
Max Temperature 64 °F 69 °F 89 °F (1939)
Min Temperature 51 °F 47 °F 26 °F (1943)
Degree Days  
Heating Degree Days 8    
Growing Degree Days 8 (Base 50)    
Moisture  
Dew Point 43 °F    
Average Humidity 60    
Maximum Humidity 81    
Minimum Humidity 34    
Precipitation  
Precipitation 0.00 in - - ()
Sea Level Pressure  
Sea Level Pressure 29.85 in    
Wind  
Wind Speed 14 mph (NW)    
Max Wind Speed 22 mph    
Max Gust Speed 32 mph    
Visibility 10 miles    
Events      
Averages and records for this station are not official NWS values.
T = Trace of Precipitation, MM = Missing Value Source: NWS Daily Summary

Daily Weather History Graph

Daily Weather History Graph

Search for Another Location

Airport or City:

Trip Planner

Search our weather history database for the weather conditions in past years. The results will help you decide how hot, cold, wet, or windy it might be!

Date:

Astronomy

Sep. 13, 2011 Rise Set
Actual Time 6:27 AM CDT 7:08 PM CDT
Civil Twilight 5:57 AM CDT 7:38 PM CDT
Nautical Twilight 5:22 AM CDT 8:13 PM CDT
Astronomical Twilight 4:44 AM CDT 8:50 PM CDT
Moon 7:14 PM CDT (9/13) 7:49 AM CDT (9/13)
Length of Visible Light 13h 40m
Length of Day
12h 40m
Full, 98% of the Moon is Illuminated
Sep 13
Full
Sep 20
Last Quarter
Sep 27
New
Oct 3
First Quarter
Oct 11
Full

Hourly Weather History & Observations

Time (CDT) Temp. Dew Point Humidity Pressure Visibility Wind Dir Wind Speed Gust Speed Precip Events Conditions
12:54 AM 62.1 °F 55.9 °F 80% 29.70 in 6.0 mi NNW 19.6 mph 25.3 mph N/A   Haze
1:01 AM 62.6 °F 55.4 °F 77% 29.72 in 7.0 mi NNW 16.1 mph 24.2 mph N/A   Overcast
1:11 AM 60.8 °F 53.6 °F 77% 29.72 in 8.0 mi NW 18.4 mph 25.3 mph N/A   Mostly Cloudy
1:54 AM 57.9 °F 52.0 °F 81% 29.73 in 10.0 mi NW 11.5 mph - N/A   Scattered Clouds
2:54 AM 57.0 °F 48.9 °F 74% 29.74 in 6.0 mi NNW 21.9 mph 32.2 mph N/A   Haze
3:54 AM 54.0 °F 45.0 °F 72% 29.78 in 10.0 mi NW 16.1 mph 25.3 mph N/A   Overcast
4:11 AM 53.6 °F 44.6 °F 72% 29.79 in 10.0 mi NNW 15.0 mph - N/A   Overcast
4:54 AM 53.1 °F 44.1 °F 71% 29.80 in 10.0 mi NNW 11.5 mph 20.7 mph N/A   Overcast
5:32 AM 51.8 °F 42.8 °F 71% 29.82 in 10.0 mi NNW 12.7 mph 19.6 mph N/A   Overcast
5:54 AM 52.0 °F 42.1 °F 69% 29.83 in 10.0 mi NW 9.2 mph - N/A   Overcast
6:54 AM 52.0 °F 43.0 °F 71% 29.86 in 10.0 mi NW 10.4 mph 21.9 mph N/A   Overcast
7:54 AM 52.0 °F 42.1 °F 69% 29.88 in 10.0 mi NNW 13.8 mph 19.6 mph N/A   Overcast
8:39 AM 51.8 °F 42.8 °F 71% 29.89 in 10.0 mi NW 15.0 mph 24.2 mph N/A   Overcast
8:54 AM 52.0 °F 42.1 °F 69% 29.89 in 10.0 mi NNW 12.7 mph - N/A   Overcast
9:26 AM 53.6 °F 39.2 °F 58% 29.90 in 10.0 mi NW 12.7 mph - N/A   Overcast
9:54 AM 54.0 °F 39.9 °F 59% 29.91 in 10.0 mi NW 12.7 mph 20.7 mph N/A   Overcast
10:54 AM 55.9 °F 41.0 °F 57% 29.92 in 10.0 mi NNW 12.7 mph 18.4 mph N/A   Mostly Cloudy
11:54 AM 60.1 °F 37.9 °F 44% 29.92 in 10.0 mi NNW 13.8 mph 23.0 mph N/A   Clear
12:54 PM 62.1 °F 37.0 °F 39% 29.91 in 10.0 mi NNW 11.5 mph - N/A   Clear
1:54 PM 64.0 °F 37.0 °F 37% 29.91 in 10.0 mi WNW 10.4 mph 16.1 mph N/A   Partly Cloudy
2:54 PM 64.9 °F 36.0 °F 34% 29.90 in 10.0 mi NNW 10.4 mph 19.6 mph N/A   Scattered Clouds
3:54 PM 64.0 °F 36.0 °F 35% 29.90 in 10.0 mi West 9.2 mph - N/A   Clear
4:54 PM 64.9 °F 37.0 °F 36% 29.89 in 10.0 mi West 8.1 mph - N/A   Scattered Clouds
5:54 PM 64.0 °F 36.0 °F 35% 29.89 in 10.0 mi West 10.4 mph - N/A   Clear
6:54 PM 60.1 °F 39.0 °F 46% 29.90 in 10.0 mi WSW 4.6 mph - N/A   Clear
7:54 PM 57.0 °F 39.9 °F 53% 29.91 in 10.0 mi SW 6.9 mph - N/A   Clear
8:54 PM 55.9 °F 41.0 °F 57% 29.91 in 10.0 mi SW 6.9 mph - N/A   Clear
9:54 PM 54.0 °F 42.1 °F 64% 29.90 in 10.0 mi SW 8.1 mph - N/A   Partly Cloudy
11:54 PM 54.0 °F 46.0 °F 75% 29.92 in 10.0 mi NW 9.2 mph - 0.00 in   Overcast